TimeEDT,TemperatureF,Dew PointF,Humidity,Sea Level PressureIn,VisibilityMPH,Wind Direction,Wind SpeedMPH,Gust SpeedMPH,PrecipitationIn,Events,Conditions,WindDirDegrees,DateUTC
12:15 AM,59.4,55.8,88,30.05,10.0,Calm,Calm,-,N/A,,Overcast,0,2013-10-12 04:15:00
12:35 AM,57.9,55.8,92,30.05,10.0,Calm,Calm,-,N/A,,Mostly Cloudy,0,2013-10-12 04:35:00
12:55 AM,57.2,56.3,97,30.05,10.0,Calm,Calm,-,N/A,,Mostly Cloudy,0,2013-10-12 04:55:00
1:15 AM,57.7,54.5,89,30.05,10.0,Calm,Calm,-,N/A,,Scattered Clouds,0,2013-10-12 05:15:00
1:35 AM,55.0,53.6,95,30.05,10.0,Calm,Calm,-,N/A,,Clear,0,2013-10-12 05:35:00
1:55 AM,53.2,52.7,98,30.05,10.0,Calm,Calm,-,N/A,,Clear,0,2013-10-12 05:55:00
2:15 AM,53.1,52.9,99,30.05,10.0,Calm,Calm,-,N/A,,Clear,0,2013-10-12 06:15:00
2:35 AM,53.1,52.7,99,30.05,10.0,Calm,Calm,-,N/A,,Clear,0,2013-10-12 06:35:00
2:55 AM,52.7,52.3,99,30.05,10.0,Calm,Calm,-,N/A,,Clear,0,2013-10-12 06:55:00
3:15 AM,51.8,51.8,100,30.05,10.0,Calm,Calm,-,N/A,,Scattered Clouds,0,2013-10-12 07:15:00
3:35 AM,52.2,52.2,100,30.05,10.0,Calm,Calm,-,N/A,,Mostly Cloudy,0,2013-10-12 07:35:00
3:55 AM,53.2,53.2,100,30.05,10.0,Calm,Calm,-,N/A,,Mostly Cloudy,0,2013-10-12 07:55:00
4:15 AM,53.1,53.1,100,30.05,10.0,Calm,Calm,-,N/A,,Mostly Cloudy,0,2013-10-12 08:15:00
4:35 AM,53.8,53.8,100,30.05,10.0,Calm,Calm,-,N/A,,Overcast,0,2013-10-12 08:35:00
4:55 AM,55.4,55.4,100,30.06,10.0,Calm,Calm,-,N/A,,Overcast,0,2013-10-12 08:55:00
5:15 AM,55.4,55.4,100,30.06,10.0,Calm,Calm,-,N/A,,Overcast,0,2013-10-12 09:15:00
5:35 AM,55.6,55.6,100,30.06,10.0,Calm,Calm,-,N/A,,Overcast,0,2013-10-12 09:35:00
5:55 AM,56.1,56.1,100,30.07,10.0,Calm,Calm,-,N/A,,Overcast,0,2013-10-12 09:55:00
6:15 AM,56.1,56.1,100,30.07,10.0,Calm,Calm,-,N/A,,Overcast,0,2013-10-12 10:15:00
6:35 AM,56.7,55.9,97,30.08,10.0,Calm,Calm,-,N/A,,Overcast,0,2013-10-12 10:35:00
6:55 AM,56.3,56.1,99,30.09,10.0,Calm,Calm,-,N/A,,Overcast,0,2013-10-12 10:55:00
7:15 AM,56.3,56.3,100,30.09,10.0,Calm,Calm,-,N/A,,Overcast,0,2013-10-12 11:15:00
7:35 AM,56.8,55.6,96,30.10,10.0,Calm,Calm,-,N/A,,Overcast,0,2013-10-12 11:35:00
7:55 AM,56.8,55.9,97,30.10,10.0,Calm,Calm,-,N/A,,Overcast,0,2013-10-12 11:55:00
8:15 AM,57.0,55.8,96,30.11,10.0,Calm,Calm,-,N/A,,Overcast,0,2013-10-12 12:15:00
8:35 AM,57.2,55.4,94,30.12,10.0,Calm,Calm,-,N/A,,Overcast,0,2013-10-12 12:35:00
8:55 AM,57.6,55.4,92,30.12,10.0,Calm,Calm,-,N/A,,Overcast,0,2013-10-12 12:55:00
9:15 AM,58.3,55.4,90,30.12,10.0,Calm,Calm,-,N/A,,Overcast,0,2013-10-12 13:15:00
9:35 AM,58.8,56.3,91,30.12,10.0,Calm,Calm,-,N/A,,Overcast,0,2013-10-12 13:35:00
9:55 AM,59.9,56.7,89,30.13,10.0,Calm,Calm,-,N/A,,Overcast,0,2013-10-12 13:55:00
10:15 AM,60.8,56.1,85,30.13,10.0,Calm,Calm,-,N/A,,Overcast,0,2013-10-12 14:15:00
10:35 AM,62.4,56.7,81,30.13,10.0,Calm,Calm,-,N/A,,Overcast,0,2013-10-12 14:35:00
10:55 AM,63.0,57.4,82,30.13,10.0,Calm,Calm,-,N/A,,Overcast,0,2013-10-12 14:55:00
11:15 AM,64.6,56.8,76,30.13,10.0,Calm,Calm,-,N/A,,Overcast,0,2013-10-12 15:15:00
11:35 AM,65.5,56.5,73,30.13,10.0,Calm,Calm,-,N/A,,Overcast,0,2013-10-12 15:35:00
11:55 AM,65.5,56.3,72,30.13,10.0,Calm,Calm,-,N/A,,Overcast,0,2013-10-12 15:55:00
12:15 PM,67.5,56.3,67,30.12,10.0,Calm,Calm,-,N/A,,Overcast,0,2013-10-12 16:15:00
12:35 PM,68.2,57.0,67,30.12,10.0,Calm,Calm,-,N/A,,Overcast,0,2013-10-12 16:35:00
12:55 PM,68.5,56.8,66,30.12,10.0,Calm,Calm,-,N/A,,Overcast,0,2013-10-12 16:55:00
1:15 PM,68.5,56.5,65,30.12,10.0,Calm,Calm,-,N/A,,Overcast,0,2013-10-12 17:15:00
1:35 PM,68.9,56.1,64,30.12,10.0,Calm,Calm,-,N/A,,Overcast,0,2013-10-12 17:35:00
1:55 PM,70.2,57.7,65,30.10,10.0,Calm,Calm,-,N/A,,Overcast,0,2013-10-12 17:55:00
2:15 PM,71.1,57.0,61,30.10,10.0,Calm,Calm,-,N/A,,Overcast,0,2013-10-12 18:15:00
2:35 PM,71.4,57.6,62,30.10,10.0,Calm,Calm,-,N/A,,Overcast,0,2013-10-12 18:35:00
2:55 PM,71.4,56.7,60,30.10,10.0,Calm,Calm,-,N/A,,Overcast,0,2013-10-12 18:55:00
3:15 PM,71.1,57.9,63,30.10,10.0,Calm,Calm,-,N/A,,Overcast,0,2013-10-12 19:15:00
3:35 PM,71.2,58.5,64,30.10,10.0,Calm,Calm,-,N/A,,Overcast,0,2013-10-12 19:35:00
3:55 PM,70.7,58.5,65,30.10,10.0,Calm,Calm,-,N/A,,Overcast,0,2013-10-12 19:55:00
4:15 PM,70.7,58.5,65,30.10,10.0,Calm,Calm,-,N/A,,Overcast,0,2013-10-12 20:15:00
4:35 PM,70.2,59.0,68,30.11,10.0,Calm,Calm,-,N/A,,Overcast,0,2013-10-12 20:35:00
4:55 PM,70.5,57.9,64,30.11,10.0,Calm,Calm,-,N/A,,Overcast,0,2013-10-12 20:55:00
5:15 PM,70.2,58.6,67,30.12,10.0,Calm,Calm,-,N/A,,Overcast,0,2013-10-12 21:15:00
5:35 PM,69.3,61.2,75,30.12,10.0,Calm,Calm,-,N/A,,Overcast,0,2013-10-12 21:35:00
5:55 PM,68.9,61.2,76,30.12,10.0,Calm,Calm,-,N/A,,Overcast,0,2013-10-12 21:55:00
6:15 PM,68.5,61.5,78,30.12,10.0,Calm,Calm,-,N/A,,Overcast,0,2013-10-12 22:15:00
6:35 PM,67.6,62.6,84,30.12,10.0,Calm,Calm,-,N/A,,Overcast,0,2013-10-12 22:35:00
6:55 PM,67.3,61.7,82,30.13,10.0,WSW,3.5,-,N/A,,Overcast,240,2013-10-12 22:55:00
7:15 PM,67.5,60.4,78,30.13,10.0,Calm,Calm,-,N/A,,Overcast,0,2013-10-12 23:15:00
7:35 PM,65.3,63.1,93,30.14,10.0,Calm,Calm,-,N/A,,Overcast,0,2013-10-12 23:35:00
7:55 PM,64.9,63.5,95,30.14,10.0,Calm,Calm,-,N/A,,Overcast,0,2013-10-12 23:55:00
8:15 PM,64.9,62.2,91,30.14,10.0,Calm,Calm,-,N/A,,Overcast,0,2013-10-13 00:15:00
8:35 PM,65.5,61.7,88,30.15,10.0,Calm,Calm,-,N/A,,Overcast,0,2013-10-13 00:35:00
8:55 PM,64.4,62.4,93,30.15,10.0,Calm,Calm,-,N/A,,Overcast,0,2013-10-13 00:55:00
9:15 PM,64.6,62.4,93,30.15,10.0,Calm,Calm,-,N/A,,Overcast,0,2013-10-13 01:15:00
9:35 PM,63.1,61.9,96,30.16,10.0,Calm,Calm,-,N/A,,Overcast,0,2013-10-13 01:35:00
9:55 PM,63.5,62.2,96,30.16,10.0,Calm,Calm,-,N/A,,Overcast,0,2013-10-13 01:55:00
10:15 PM,62.6,61.9,97,30.16,10.0,Calm,Calm,-,N/A,,Overcast,0,2013-10-13 02:15:00
10:35 PM,62.6,62.1,98,30.16,10.0,Calm,Calm,-,N/A,,Overcast,0,2013-10-13 02:35:00
10:55 PM,62.1,61.2,97,30.16,10.0,Calm,Calm,-,N/A,,Mostly Cloudy,0,2013-10-13 02:55:00
11:15 PM,63.0,62.4,98,30.17,10.0,Calm,Calm,-,N/A,,Overcast,0,2013-10-13 03:15:00
11:35 PM,64.2,62.1,93,30.17,10.0,Calm,Calm,-,N/A,,Overcast,0,2013-10-13 03:35:00
11:55 PM,63.5,62.1,95,30.17,10.0,Calm,Calm,-,N/A,,Overcast,0,2013-10-13 03:55:00